Wetterdaten: Dienstag, 03.05.2016
Datum Zeit Temp. I. Temp. A. Boden 5 cm Feuchte A. Sonne Luftdruck Regen Wind Sonnenschein
03.05.2016 00:01 22,3 C 8,6 C 11,4 C 87 % 0 % 1020 hPa 0,0 l/m 0,2 km/h (0 Bft) 0 min
03.05.2016 00:04 22,3 C 8,4 C 11,1 C 87 % 0 % 1020 hPa 0,0 l/m 0,1 km/h (0 Bft) 0 min
03.05.2016 00:07 22,3 C 8,4 C 11,2 C 88 % 0 % 1020 hPa 0,0 l/m 0,0 km/h (0 Bft) 0 min
03.05.2016 00:10 22,3 C 8,3 C 11,2 C 88 % 0 % 1020 hPa 0,0 l/m 0,0 km/h (0 Bft) 0 min
03.05.2016 00:13 22,3 C 8,2 C 11,1 C 89 % 0 % 1020 hPa 0,0 l/m 0,0 km/h (0 Bft) 0 min
03.05.2016 00:16 22,2 C 8,2 C 11,1 C 89 % 0 % 1020 hPa 0,0 l/m 0,0 km/h (0 Bft) 0 min
03.05.2016 00:19 22,2 C 8,1 C 11,1 C 89 % 0 % 1020 hPa 0,0 l/m 0,0 km/h (0 Bft) 0 min
03.05.2016 00:22 22,3 C 8,1 C 11,0 C 89 % 0 % 1020 hPa 0,0 l/m 0,0 km/h (0 Bft) 0 min
03.05.2016 00:25 22,2 C 8,1 C 11,4 C 89 % 0 % 1020 hPa 0,0 l/m 0,0 km/h (0 Bft) 0 min
03.05.2016 00:28 22,2 C 8,0 C 11,4 C 89 % 0 % 1020 hPa 0,0 l/m 0,0 km/h (0 Bft) 0 min
03.05.2016 00:31 22,2 C 8,0 C 11,1 C 90 % 0 % 1020 hPa 0,0 l/m 0,0 km/h (0 Bft) 0 min
03.05.2016 00:34 22,2 C 7,9 C 11,1 C 90 % 0 % 1020 hPa 0,0 l/m 0,0 km/h (0 Bft) 0 min
03.05.2016 00:37 22,2 C 7,9 C 11,2 C 90 % 0 % 1020 hPa 0,0 l/m 0,0 km/h (0 Bft) 0 min
03.05.2016 00:40 22,2 C 7,8 C 10,7 C 90 % 0 % 1020 hPa 0,0 l/m 0,0 km/h (0 Bft) 0 min
03.05.2016 00:43 22,2 C 7,8 C 10,7 C 90 % 0 % 1020 hPa 0,0 l/m 0,0 km/h (0 Bft) 0 min
03.05.2016 00:46 22,2 C 7,7 C 11,1 C 90 % 0 % 1020 hPa 0,0 l/m 0,0 km/h (0 Bft) 0 min
03.05.2016 00:49 22,2 C 7,7 C 10,9 C 90 % 0 % 1020 hPa 0,0 l/m 0,0 km/h (0 Bft) 0 min
03.05.2016 00:52 22,2 C 7,6 C 11,0 C 90 % 0 % 1020 hPa 0,0 l/m 0,0 km/h (0 Bft) 0 min
03.05.2016 01:01 22,2 C 7,6 C 11,0 C 90 % 0 % 1020 hPa 0,0 l/m 0,0 km/h (0 Bft) 0 min
03.05.2016 01:04 22,2 C 7,5 C 10,6 C 90 % 0 % 1020 hPa 0,0 l/m 0,0 km/h (0 Bft) 0 min
03.05.2016 01:07 22,2 C 7,3 C 10,5 C 90 % 0 % 1020 hPa 0,0 l/m 0,0 km/h (0 Bft) 0 min
03.05.2016 01:10 22,2 C 7,3 C 10,5 C 90 % 0 % 1020 hPa 0,0 l/m 0,0 km/h (0 Bft) 0 min
03.05.2016 01:13 22,2 C 7,3 C 10,5 C 90 % 0 % 1020 hPa 0,0 l/m 0,0 km/h (0 Bft) 0 min
03.05.2016 01:16 22,2 C 7,2 C 10,7 C 90 % 0 % 1020 hPa 0,0 l/m 0,0 km/h (0 Bft) 0 min
03.05.2016 01:19 22,2 C 7,2 C 10,7 C 91 % 0 % 1020 hPa 0,0 l/m 0,0 km/h (0 Bft) 0 min
03.05.2016 01:22 22,2 C 7,2 C 10,7 C 91 % 0 % 1020 hPa 0,0 l/m 0,0 km/h (0 Bft) 0 min
03.05.2016 01:25 22,2 C 7,2 C 10,7 C 91 % 0 % 1020 hPa 0,0 l/m 0,0 km/h (0 Bft) 0 min
03.05.2016 01:28 22,2 C 7,2 C 10,6 C 91 % 0 % 1020 hPa 0,0 l/m 0,0 km/h (0 Bft) 0 min
03.05.2016 01:31 22,2 C 7,2 C 10,6 C 92 % 0 % 1020 hPa 0,0 l/m 0,0 km/h (0 Bft) 0 min
03.05.2016 01:34 22,2 C 7,2 C 10,7 C 92 % 0 % 1020 hPa 0,0 l/m 0,0 km/h (0 Bft) 0 min
03.05.2016 01:37 22,2 C 7,2 C 10,7 C 92 % 0 % 1020 hPa 0,0 l/m 0,0 km/h (0 Bft) 0 min
03.05.2016 01:40 22,2 C 7,1 C 10,5 C 92 % 0 % 1020 hPa 0,0 l/m 0,0 km/h (0 Bft) 0 min
03.05.2016 01:43 22,2 C 7,1 C 10,6 C 92 % 0 % 1020 hPa 0,0 l/m 0,0 km/h (0 Bft) 0 min
03.05.2016 01:46 22,2 C 7,1 C 10,5 C 92 % 0 % 1020 hPa 0,0 l/m 0,0 km/h (0 Bft) 0 min
03.05.2016 01:49 22,2 C 7,0 C 10,5 C 92 % 0 % 1020 hPa 0,0 l/m 0,0 km/h (0 Bft) 0 min
03.05.2016 01:52 22,2 C 7,0 C 10,3 C 92 % 0 % 1020 hPa 0,0 l/m 0,0 km/h (0 Bft) 0 min
03.05.2016 01:56 22,2 C 7,0 C 10,2 C 92 % 0 % 1020 hPa 0,0 l/m 0,0 km/h (0 Bft) 0 min
03.05.2016 01:59 22,2 C 7,0 C 10,1 C 92 % 0 % 1020 hPa 0,0 l/m 0,0 km/h (0 Bft) 0 min
03.05.2016 02:02 22,2 C 6,9 C 9,8 C 92 % 0 % 1020 hPa 0,0 l/m 0,0 km/h (0 Bft) 0 min
03.05.2016 02:05 22,2 C 6,9 C 9,8 C 92 % 0 % 1020 hPa 0,0 l/m 0,0 km/h (0 Bft) 0 min
03.05.2016 02:08 22,2 C 6,9 C 9,8 C 92 % 0 % 1020 hPa 0,0 l/m 0,0 km/h (0 Bft) 0 min
03.05.2016 02:11 22,2 C 6,9 C 9,8 C 92 % 0 % 1020 hPa 0,0 l/m 0,0 km/h (0 Bft) 0 min
03.05.2016 02:14 22,2 C 6,9 C 10,0 C 92 % 0 % 1020 hPa 0,0 l/m 0,0 km/h (0 Bft) 0 min
03.05.2016 02:17 22,2 C 6,9 C 9,9 C 92 % 0 % 1020 hPa 0,0 l/m 0,0 km/h (0 Bft) 0 min
03.05.2016 02:20 22,2 C 6,9 C 9,8 C 92 % 0 % 1020 hPa 0,0 l/m 0,0 km/h (0 Bft) 0 min
03.05.2016 02:23 22,2 C 6,6 C 10,1 C 92 % 0 % 1020 hPa 0,0 l/m 0,0 km/h (0 Bft) 0 min
03.05.2016 02:26 22,2 C 6,6 C 10,0 C 92 % 0 % 1019 hPa 0,0 l/m 0,0 km/h (0 Bft) 0 min
03.05.2016 02:29 22,2 C 6,6 C 10,1 C 92 % 0 % 1019 hPa 0,0 l/m 0,0 km/h (0 Bft) 0 min
03.05.2016 02:32 22,2 C 6,6 C 10,0 C 92 % 0 % 1019 hPa 0,0 l/m 0,0 km/h (0 Bft) 0 min
03.05.2016 02:35 22,2 C 6,6 C 10,1 C 92 % 0 % 1019 hPa 0,0 l/m 0,0 km/h (0 Bft) 0 min
03.05.2016 02:38 22,2 C 6,5 C 9,6 C 92 % 0 % 1019 hPa 0,0 l/m 0,0 km/h (0 Bft) 0 min
03.05.2016 02:41 22,2 C 6,4 C 9,5 C 92 % 0 % 1019 hPa 0,0 l/m 0,0 km/h (0 Bft) 0 min
03.05.2016 02:44 22,2 C 6,3 C 9,5 C 92 % 0 % 1019 hPa 0,0 l/m 0,0 km/h (0 Bft) 0 min
03.05.2016 02:47 22,2 C 6,3 C 9,9 C 92 % 0 % 1019 hPa 0,0 l/m 0,0 km/h (0 Bft) 0 min
03.05.2016 02:50 22,2 C 6,2 C 9,9 C 92 % 0 % 1019 hPa 0,0 l/m 0,0 km/h (0 Bft) 0 min
03.05.2016 02:54 22,2 C 6,2 C 9,4 C 92 % 0 % 1019 hPa 0,0 l/m 0,0 km/h (0 Bft) 0 min
03.05.2016 02:57 22,2 C 6,2 C 9,3 C 92 % 0 % 1019 hPa 0,0 l/m 0,0 km/h (0 Bft) 0 min
03.05.2016 03:00 22,2 C 6,0 C 9,7 C 92 % 0 % 1019 hPa 0,0 l/m 0,0 km/h (0 Bft) 0 min
03.05.2016 03:03 22,2 C 6,0 C 9,1 C 92 % 0 % 1019 hPa 0,0 l/m 0,0 km/h (0 Bft) 0 min
03.05.2016 03:06 22,2 C 5,7 C 9,2 C 92 % 0 % 1019 hPa 0,0 l/m 0,7 km/h (0 Bft) 0 min
03.05.2016 03:09 22,2 C 5,8 C 9,6 C 92 % 0 % 1019 hPa 0,0 l/m 0,3 km/h (0 Bft) 0 min
03.05.2016 03:12 22,2 C 5,8 C 9,5 C 92 % 0 % 1019 hPa 0,0 l/m 0,0 km/h (0 Bft) 0 min
03.05.2016 03:15 22,2 C 5,8 C 9,0 C 92 % 0 % 1019 hPa 0,0 l/m 0,0 km/h (0 Bft) 0 min
03.05.2016 03:18 22,2 C 5,7 C 9,3 C 92 % 0 % 1019 hPa 0,0 l/m 0,0 km/h (0 Bft) 0 min
03.05.2016 03:21 22,2 C 5,7 C 9,5 C 92 % 0 % 1019 hPa 0,0 l/m 0,0 km/h (0 Bft) 0 min
03.05.2016 03:24 22,2 C 5,7 C 9,3 C 92 % 0 % 1019 hPa 0,0 l/m 0,0 km/h (0 Bft) 0 min
03.05.2016 03:27 22,2 C 5,6 C 8,9 C 92 % 0 % 1019 hPa 0,0 l/m 0,0 km/h (0 Bft) 0 min
03.05.2016 03:30 22,2 C 5,6 C 8,9 C 92 % 0 % 1019 hPa 0,0 l/m 0,0 km/h (0 Bft) 0 min
03.05.2016 03:33 22,2 C 5,6 C 9,2 C 92 % 0 % 1019 hPa 0,0 l/m 0,0 km/h (0 Bft) 0 min
03.05.2016 03:36 22,2 C 5,6 C 9,1 C 93 % 0 % 1019 hPa 0,0 l/m 0,0 km/h (0 Bft) 0 min
03.05.2016 03:39 22,2 C 5,5 C 9,0 C 93 % 0 % 1019 hPa 0,0 l/m 0,0 km/h (0 Bft) 0 min
03.05.2016 03:42 22,2 C 5,5 C 9,3 C 93 % 0 % 1019 hPa 0,0 l/m 0,0 km/h (0 Bft) 0 min
03.05.2016 03:45 22,2 C 5,5 C 9,3 C 93 % 0 % 1019 hPa 0,0 l/m 0,0 km/h (0 Bft) 0 min
03.05.2016 03:48 22,2 C 5,4 C 9,3 C 93 % 0 % 1019 hPa 0,0 l/m 0,0 km/h (0 Bft) 0 min
03.05.2016 03:51 22,2 C 5,3 C 8,7 C 93 % 0 % 1019 hPa 0,0 l/m 0,0 km/h (0 Bft) 0 min
03.05.2016 03:54 22,2 C 5,3 C 8,8 C 93 % 0 % 1019 hPa 0,0 l/m 0,0 km/h (0 Bft) 0 min
03.05.2016 03:57 22,2 C 5,3 C 9,1 C 93 % 0 % 1019 hPa 0,0 l/m 0,0 km/h (0 Bft) 0 min
03.05.2016 04:00 22,2 C 5,3 C 9,2 C 93 % 0 % 1019 hPa 0,0 l/m 0,0 km/h (0 Bft) 0 min
03.05.2016 04:03 22,2 C 5,2 C 8,6 C 93 % 0 % 1019 hPa 0,0 l/m 0,0 km/h (0 Bft) 0 min
03.05.2016 04:06 22,2 C 5,2 C 8,6 C 93 % 0 % 1019 hPa 0,0 l/m 0,0 km/h (0 Bft) 0 min
03.05.2016 04:09 22,2 C 5,2 C 9,0 C 93 % 0 % 1019 hPa 0,0 l/m 0,0 km/h (0 Bft) 0 min
03.05.2016 04:12 22,2 C 5,2 C 9,0 C 93 % 0 % 1019 hPa 0,0 l/m 0,0 km/h (0 Bft) 0 min
03.05.2016 04:15 22,2 C 5,2 C 8,6 C 93 % 0 % 1019 hPa 0,0 l/m 0,0 km/h (0 Bft) 0 min
03.05.2016 04:18 22,2 C 5,1 C 8,6 C 93 % 0 % 1019 hPa 0,0 l/m 0,0 km/h (0 Bft) 0 min
03.05.2016 04:21 22,2 C 5,1 C 8,9 C 93 % 0 % 1019 hPa 0,0 l/m 0,0 km/h (0 Bft) 0 min
03.05.2016 04:24 22,2 C 5,1 C 9,1 C 93 % 0 % 1019 hPa 0,0 l/m 0,0 km/h (0 Bft) 0 min
03.05.2016 04:27 22,2 C 5,2 C 8,8 C 93 % 0 % 1019 hPa 0,0 l/m 0,0 km/h (0 Bft) 0 min
03.05.2016 04:30 22,2 C 5,2 C 8,6 C 93 % 0 % 1019 hPa 0,0 l/m 0,0 km/h (0 Bft) 0 min
03.05.2016 04:33 22,2 C 5,2 C 8,8 C 93 % 0 % 1019 hPa 0,0 l/m 0,0 km/h (0 Bft) 0 min
03.05.2016 04:36 22,2 C 5,2 C 8,7 C 93 % 0 % 1019 hPa 0,0 l/m 0,0 km/h (0 Bft) 0 min
03.05.2016 04:39 22,2 C 5,2 C 8,4 C 93 % 0 % 1019 hPa 0,0 l/m 0,0 km/h (0 Bft) 0 min
03.05.2016 04:42 22,1 C 5,2 C 8,5 C 93 % 0 % 1019 hPa 0,0 l/m 0,0 km/h (0 Bft) 0 min
03.05.2016 04:45 22,2 C 5,2 C 8,8 C 93 % 0 % 1019 hPa 0,0 l/m 0,0 km/h (0 Bft) 0 min
03.05.2016 04:48 22,2 C 5,2 C 9,0 C 93 % 0 % 1019 hPa 0,0 l/m 0,0 km/h (0 Bft) 0 min
03.05.2016 04:51 22,1 C 5,2 C 8,9 C 93 % 0 % 1019 hPa 0,0 l/m 0,0 km/h (0 Bft) 0 min
03.05.2016 04:54 22,2 C 5,1 C 8,4 C 93 % 0 % 1019 hPa 0,0 l/m 0,0 km/h (0 Bft) 0 min
03.05.2016 04:57 22,1 C 5,1 C 8,3 C 93 % 0 % 1019 hPa 0,0 l/m 0,0 km/h (0 Bft) 0 min
03.05.2016 05:00 22,1 C 5,1 C 8,7 C 93 % 0 % 1019 hPa 0,0 l/m 0,0 km/h (0 Bft) 0 min
03.05.2016 05:03 22,1 C 4,9 C 8,7 C 93 % 0 % 1019 hPa 0,0 l/m 0,0 km/h (0 Bft) 0 min
03.05.2016 05:06 22,1 C 4,9 C 8,4 C 93 % 0 % 1019 hPa 0,0 l/m 0,0 km/h (0 Bft) 0 min
03.05.2016 05:09 22,2 C 4,9 C 8,2 C 93 % 0 % 1019 hPa 0,0 l/m 0,0 km/h (0 Bft) 0 min
03.05.2016 05:12 22,1 C 4,8 C 8,2 C 93 % 0 % 1019 hPa 0,0 l/m 0,0 km/h (0 Bft) 0 min
03.05.2016 05:15 22,2 C 4,8 C 8,3 C 93 % 0 % 1019 hPa 0,0 l/m 0,0 km/h (0 Bft) 0 min
03.05.2016 05:18 22,2 C 4,8 C 8,3 C 93 % 0 % 1019 hPa 0,0 l/m 0,0 km/h (0 Bft) 0 min
03.05.2016 05:21 22,1 C 4,9 C 8,6 C 93 % 0 % 1019 hPa 0,0 l/m 0,0 km/h (0 Bft) 0 min
03.05.2016 05:24 22,1 C 4,9 C 8,7 C 93 % 0 % 1019 hPa 0,0 l/m 0,0 km/h (0 Bft) 0 min
03.05.2016 05:27 22,2 C 4,9 C 8,3 C 93 % 0 % 1019 hPa 0,0 l/m 0,0 km/h (0 Bft) 0 min
03.05.2016 05:30 22,2 C 4,9 C 8,4 C 93 % 0 % 1019 hPa 0,0 l/m 0,0 km/h (0 Bft) 0 min
03.05.2016 05:33 22,2 C 4,9 C 8,3 C 93 % 0 % 1019 hPa 0,0 l/m 0,0 km/h (0 Bft) 0 min
03.05.2016 05:36 22,2 C 5,2 C 8,2 C 93 % 0 % 1019 hPa 0,0 l/m 0,0 km/h (0 Bft) 0 min
03.05.2016 05:39 22,2 C 5,2 C 8,2 C 93 % 0 % 1019 hPa 0,0 l/m 0,0 km/h (0 Bft) 0 min
03.05.2016 05:42 22,2 C 5,2 C 8,1 C 93 % 0 % 1019 hPa 0,0 l/m 0,0 km/h (0 Bft) 0 min
03.05.2016 05:45 22,2 C 5,2 C 8,1 C 93 % 1 % 1019 hPa 0,0 l/m 0,0 km/h (0 Bft) 0 min
03.05.2016 05:48 22,1 C 5,2 C 8,3 C 94 % 1 % 1019 hPa 0,0 l/m 0,0 km/h (0 Bft) 0 min
03.05.2016 05:51 22,1 C 5,3 C 8,4 C 94 % 1 % 1019 hPa 0,0 l/m 0,0 km/h (0 Bft) 0 min
03.05.2016 05:54 22,1 C 5,4 C 8,1 C 94 % 2 % 1019 hPa 0,0 l/m 0,0 km/h (0 Bft) 0 min
03.05.2016 05:57 22,2 C 5,5 C 8,4 C 94 % 2 % 1019 hPa 0,0 l/m 0,0 km/h (0 Bft) 0 min
03.05.2016 06:00 22,1 C 5,6 C 8,3 C 94 % 2 % 1019 hPa 0,0 l/m 0,0 km/h (0 Bft) 0 min
03.05.2016 06:03 22,1 C 5,7 C 8,3 C 94 % 3 % 1019 hPa 0,0 l/m 0,1 km/h (0 Bft) 0 min
03.05.2016 06:06 22,2 C 5,7 C 8,6 C 94 % 3 % 1019 hPa 0,0 l/m 0,2 km/h (0 Bft) 0 min
03.05.2016 06:09 22,1 C 5,8 C 8,2 C 94 % 3 % 1019 hPa 0,0 l/m 0,1 km/h (0 Bft) 0 min
03.05.2016 06:12 22,1 C 5,8 C 8,4 C 94 % 5 % 1019 hPa 0,0 l/m 0,0 km/h (0 Bft) 0 min
03.05.2016 06:15 22,1 C 5,8 C 8,1 C 94 % 5 % 1019 hPa 0,0 l/m 0,0 km/h (0 Bft) 0 min
03.05.2016 06:18 22,1 C 5,8 C 8,2 C 94 % 6 % 1019 hPa 0,0 l/m 0,1 km/h (0 Bft) 0 min
03.05.2016 06:21 22,1 C 5,8 C 8,3 C 94 % 7 % 1019 hPa 0,0 l/m 0,1 km/h (0 Bft) 0 min
03.05.2016 06:24 22,1 C 5,8 C 8,2 C 94 % 8 % 1019 hPa 0,0 l/m 0,0 km/h (0 Bft) 0 min
03.05.2016 06:27 22,2 C 5,9 C 8,5 C 94 % 8 % 1019 hPa 0,0 l/m 0,0 km/h (0 Bft) 0 min
03.05.2016 06:30 22,1 C 6,0 C 8,4 C 95 % 8 % 1019 hPa 0,0 l/m 0,0 km/h (0 Bft) 0 min
03.05.2016 06:33 22,2 C 6,0 C 8,5 C 95 % 8 % 1019 hPa 0,0 l/m 0,0 km/h (0 Bft) 0 min
03.05.2016 06:36 22,1 C 6,1 C 8,6 C 95 % 9 % 1019 hPa 0,0 l/m 0,0 km/h (0 Bft) 0 min
03.05.2016 06:39 22,2 C 6,0 C 8,3 C 95 % 9 % 1019 hPa 0,0 l/m 0,0 km/h (0 Bft) 0 min
03.05.2016 06:42 22,2 C 6,0 C 8,3 C 95 % 9 % 1019 hPa 0,0 l/m 0,0 km/h (0 Bft) 0 min
03.05.2016 06:45 22,2 C 6,0 C 8,5 C 95 % 9 % 1019 hPa 0,0 l/m 0,0 km/h (0 Bft) 0 min
03.05.2016 06:48 22,2 C 6,0 C 8,5 C 95 % 10 % 1019 hPa 0,0 l/m 0,0 km/h (0 Bft) 0 min
03.05.2016 06:51 22,2 C 6,0 C 8,5 C 95 % 11 % 1019 hPa 0,0 l/m 0,0 km/h (0 Bft) 0 min
03.05.2016 06:54 22,2 C 6,0 C 8,5 C 95 % 11 % 1019 hPa 0,0 l/m 0,0 km/h (0 Bft) 0 min
03.05.2016 06:57 22,2 C 6,1 C 8,5 C 95 % 12 % 1019 hPa 0,0 l/m 0,0 km/h (0 Bft) 0 min
03.05.2016 07:00 22,2 C 6,1 C 8,6 C 95 % 13 % 1019 hPa 0,0 l/m 0,1 km/h (0 Bft) 0 min
03.05.2016 07:03 22,3 C 6,1 C 8,5 C 95 % 12 % 1019 hPa 0,0 l/m 0,0 km/h (0 Bft) 0 min
03.05.2016 07:06 22,2 C 6,1 C 8,6 C 95 % 12 % 1019 hPa 0,0 l/m 0,0 km/h (0 Bft) 0 min
03.05.2016 07:09 22,3 C 6,2 C 8,6 C 95 % 12 % 1019 hPa 0,0 l/m 0,0 km/h (0 Bft) 0 min
03.05.2016 07:12 22,2 C 6,0 C 8,4 C 95 % 12 % 1019 hPa 0,0 l/m 0,0 km/h (0 Bft) 0 min
03.05.2016 07:15 22,2 C 6,1 C 8,7 C 95 % 14 % 1019 hPa 0,0 l/m 0,0 km/h (0 Bft) 0 min
03.05.2016 07:18 22,2 C 6,2 C 8,6 C 95 % 14 % 1019 hPa 0,0 l/m 0,3 km/h (0 Bft) 0 min
03.05.2016 07:21 22,1 C 6,1 C 8,5 C 95 % 14 % 1019 hPa 0,0 l/m 0,0 km/h (0 Bft) 0 min
03.05.2016 07:24 22,2 C 6,0 C 8,3 C 95 % 15 % 1019 hPa 0,0 l/m 0,0 km/h (0 Bft) 0 min
03.05.2016 07:27 22,2 C 6,1 C 8,7 C 95 % 16 % 1019 hPa 0,0 l/m 0,0 km/h (0 Bft) 0 min
03.05.2016 07:30 22,2 C 6,3 C 8,8 C 95 % 16 % 1019 hPa 0,0 l/m 0,0 km/h (0 Bft) 0 min
03.05.2016 07:33 22,2 C 6,3 C 8,7 C 95 % 21 % 1019 hPa 0,0 l/m 0,0 km/h (0 Bft) 0 min
03.05.2016 07:36 22,2 C 6,4 C 8,8 C 95 % 24 % 1019 hPa 0,0 l/m 0,3 km/h (0 Bft) 0 min
03.05.2016 07:39 22,2 C 6,4 C 8,8 C 95 % 24 % 1019 hPa 0,0 l/m 0,1 km/h (0 Bft) 0 min
03.05.2016 07:42 22,2 C 6,4 C 8,8 C 95 % 24 % 1019 hPa 0,0 l/m 0,1 km/h (0 Bft) 0 min
03.05.2016 07:45 22,2 C 6,5 C 8,9 C 96 % 39 % 1019 hPa 0,0 l/m 0,4 km/h (0 Bft) 0 min
03.05.2016 07:48 22,2 C 6,5 C 9,0 C 96 % 38 % 1019 hPa 0,0 l/m 0,0 km/h (0 Bft) 0 min
03.05.2016 07:51 22,2 C 6,8 C 9,1 C 96 % 38 % 1019 hPa 0,0 l/m 2,4 km/h (1 Bft) 0 min
03.05.2016 07:54 22,2 C 6,8 C 9,1 C 95 % 25 % 1019 hPa 0,0 l/m 2,4 km/h (1 Bft) 0 min
03.05.2016 07:57 22,2 C 6,8 C 9,1 C 95 % 22 % 1019 hPa 0,0 l/m 0,1 km/h (0 Bft) 0 min
03.05.2016 08:00 22,2 C 6,6 C 9,1 C 96 % 18 % 1019 hPa 0,0 l/m 0,0 km/h (0 Bft) 0 min
03.05.2016 08:03 22,2 C 6,6 C 8,9 C 96 % 18 % 1019 hPa 0,0 l/m 0,0 km/h (0 Bft) 0 min
03.05.2016 08:06 22,2 C 6,6 C 9,0 C 96 % 18 % 1019 hPa 0,0 l/m 0,2 km/h (0 Bft) 0 min
03.05.2016 08:09 22,2 C 6,6 C 8,9 C 96 % 18 % 1019 hPa 0,0 l/m 0,4 km/h (0 Bft) 0 min
03.05.2016 08:12 22,2 C 6,6 C 9,0 C 96 % 19 % 1019 hPa 0,0 l/m 0,1 km/h (0 Bft) 0 min
03.05.2016 08:15 22,2 C 6,6 C 9,2 C 96 % 22 % 1019 hPa 0,0 l/m 1,9 km/h (1 Bft) 0 min
03.05.2016 08:18 22,2 C 6,8 C 9,2 C 96 % 23 % 1019 hPa 0,0 l/m 0,1 km/h (0 Bft) 0 min
03.05.2016 08:21 22,2 C 6,8 C 9,3 C 96 % 25 % 1019 hPa 0,0 l/m 0,0 km/h (0 Bft) 0 min
03.05.2016 08:24 22,2 C 7,0 C 9,1 C 96 % 31 % 1019 hPa 0,0 l/m 0,0 km/h (0 Bft) 0 min
03.05.2016 08:27 22,2 C 6,9 C 9,0 C 96 % 31 % 1020 hPa 0,0 l/m 0,0 km/h (0 Bft) 0 min
03.05.2016 08:30 22,2 C 7,2 C 9,3 C 96 % 31 % 1020 hPa 0,0 l/m 0,0 km/h (0 Bft) 0 min
03.05.2016 08:33 22,2 C 7,2 C 9,5 C 96 % 40 % 1020 hPa 0,0 l/m 0,0 km/h (0 Bft) 0 min
03.05.2016 08:36 22,2 C 7,6 C 9,5 C 95 % 43 % 1019 hPa 0,0 l/m 0,0 km/h (0 Bft) 0 min
03.05.2016 08:39 22,2 C 7,7 C 9,6 C 95 % 49 % 1019 hPa 0,0 l/m 0,0 km/h (0 Bft) 0 min
03.05.2016 08:42 22,2 C 8,0 C 9,7 C 94 % 49 % 1019 hPa 0,0 l/m 0,6 km/h (0 Bft) 0 min
03.05.2016 08:45 22,2 C 8,4 C 9,8 C 94 % 52 % 1019 hPa 0,0 l/m 1,3 km/h (1 Bft) 0 min
03.05.2016 08:48 22,2 C 8,4 C 9,7 C 94 % 55 % 1019 hPa 0,0 l/m 4,8 km/h (1 Bft) 3 min
03.05.2016 08:51 22,2 C 8,7 C 9,8 C 92 % 60 % 1019 hPa 0,0 l/m 4,3 km/h (1 Bft) 3 min
03.05.2016 08:54 22,2 C 8,8 C 9,9 C 91 % 63 % 1019 hPa 0,0 l/m 0,4 km/h (0 Bft) 3 min
03.05.2016 08:57 22,2 C 8,9 C 10,1 C 90 % 62 % 1019 hPa 0,0 l/m 5,9 km/h (2 Bft) 3 min
03.05.2016 09:00 22,2 C 9,2 C 10,1 C 89 % 62 % 1019 hPa 0,0 l/m 5,7 km/h (1 Bft) 3 min
03.05.2016 09:03 22,2 C 9,3 C 10,1 C 87 % 31 % 1019 hPa 0,0 l/m 0,9 km/h (0 Bft) 0 min
03.05.2016 09:06 22,2 C 9,3 C 10,2 C 87 % 37 % 1019 hPa 0,0 l/m 5,4 km/h (1 Bft) 0 min
03.05.2016 09:09 22,2 C 9,2 C 10,3 C 86 % 38 % 1019 hPa 0,0 l/m 0,0 km/h (0 Bft) 0 min
03.05.2016 09:12 22,2 C 9,3 C 10,2 C 86 % 38 % 1019 hPa 0,0 l/m 3,7 km/h (1 Bft) 0 min
03.05.2016 09:15 22,2 C 9,4 C 10,3 C 86 % 48 % 1019 hPa 0,0 l/m 3,2 km/h (1 Bft) 0 min
03.05.2016 09:18 22,2 C 9,4 C 10,5 C 86 % 52 % 1019 hPa 0,0 l/m 6,7 km/h (2 Bft) 0 min
03.05.2016 09:21 22,2 C 9,6 C 10,3 C 86 % 56 % 1019 hPa 0,0 l/m 0,2 km/h (0 Bft) 3 min
03.05.2016 09:24 22,2 C 9,7 C 10,5 C 85 % 52 % 1019 hPa 0,0 l/m 6,1 km/h (2 Bft) 0 min
03.05.2016 09:27 22,2 C 9,6 C 10,6 C 84 % 54 % 1019 hPa 0,0 l/m 0,2 km/h (0 Bft) 3 min
03.05.2016 09:30 22,2 C 9,6 C 10,6 C 85 % 53 % 1019 hPa 0,0 l/m 2,5 km/h (1 Bft) 3 min
03.05.2016 09:33 22,2 C 9,8 C 10,7 C 84 % 47 % 1019 hPa 0,0 l/m 1,5 km/h (1 Bft) 0 min
03.05.2016 09:36 22,2 C 10,0 C 10,8 C 84 % 49 % 1019 hPa 0,0 l/m 3,8 km/h (1 Bft) 0 min
03.05.2016 09:39 22,2 C 10,0 C 10,9 C 84 % 49 % 1019 hPa 0,0 l/m 0,3 km/h (0 Bft) 0 min
03.05.2016 09:42 22,2 C 10,2 C 10,9 C 84 % 58 % 1019 hPa 0,0 l/m 4,0 km/h (1 Bft) 3 min
03.05.2016 09:45 22,2 C 10,3 C 11,1 C 84 % 58 % 1019 hPa 0,0 l/m 0,9 km/h (0 Bft) 3 min
03.05.2016 09:48 22,2 C 10,4 C 11,2 C 84 % 58 % 1019 hPa 0,0 l/m 0,4 km/h (0 Bft) 3 min
03.05.2016 09:51 22,2 C 10,4 C 11,2 C 83 % 56 % 1019 hPa 0,0 l/m 0,0 km/h (0 Bft) 3 min
03.05.2016 09:54 22,2 C 10,4 C 11,1 C 83 % 56 % 1019 hPa 0,0 l/m 0,4 km/h (0 Bft) 3 min
03.05.2016 09:57 22,2 C 10,4 C 11,2 C 83 % 67 % 1019 hPa 0,0 l/m 5,4 km/h (1 Bft) 3 min
03.05.2016 10:00 22,2 C 10,6 C 11,3 C 82 % 68 % 1019 hPa 0,0 l/m 4,5 km/h (1 Bft) 3 min
03.05.2016 10:03 22,2 C 10,7 C 11,3 C 82 % 68 % 1019 hPa 0,0 l/m 0,8 km/h (0 Bft) 3 min
03.05.2016 10:06 22,2 C 11,0 C 11,4 C 81 % 68 % 1019 hPa 0,0 l/m 4,2 km/h (1 Bft) 3 min
03.05.2016 10:09 22,2 C 11,3 C 11,5 C 81 % 69 % 1019 hPa 0,0 l/m 0,9 km/h (0 Bft) 3 min
03.05.2016 10:12 22,2 C 11,6 C 11,6 C 79 % 69 % 1019 hPa 0,0 l/m 2,7 km/h (1 Bft) 3 min
03.05.2016 10:15 22,2 C 11,8 C 11,6 C 80 % 71 % 1019 hPa 0,0 l/m 7,2 km/h (2 Bft) 3 min
03.05.2016 10:18 22,2 C 11,8 C 11,6 C 80 % 72 % 1019 hPa 0,0 l/m 5,8 km/h (2 Bft) 3 min
03.05.2016 10:21 22,2 C 12,1 C 11,6 C 78 % 74 % 1019 hPa 0,0 l/m 6,0 km/h (2 Bft) 3 min
03.05.2016 10:24 22,2 C 12,5 C 11,8 C 76 % 73 % 1019 hPa 0,0 l/m 0,1 km/h (0 Bft) 3 min
03.05.2016 10:27 22,2 C 12,4 C 11,8 C 76 % 72 % 1019 hPa 0,0 l/m 0,1 km/h (0 Bft) 3 min
03.05.2016 10:30 22,3 C 12,8 C 12,0 C 76 % 72 % 1019 hPa 0,0 l/m 5,1 km/h (1 Bft) 3 min
03.05.2016 10:33 22,3 C 13,0 C 12,0 C 76 % 73 % 1019 hPa 0,0 l/m 7,3 km/h (2 Bft) 3 min
03.05.2016 10:36 22,3 C 12,8 C 12,1 C 74 % 76 % 1019 hPa 0,0 l/m 5,0 km/h (1 Bft) 3 min
03.05.2016 10:39 22,2 C 12,9 C 12,2 C 76 % 76 % 1019 hPa 0,0 l/m 0,1 km/h (0 Bft) 3 min
03.05.2016 10:42 22,3 C 13,0 C 12,5 C 75 % 77 % 1019 hPa 0,0 l/m 3,2 km/h (1 Bft) 3 min
03.05.2016 10:45 22,2 C 13,0 C 12,6 C 76 % 79 % 1019 hPa 0,0 l/m 5,3 km/h (1 Bft) 3 min
03.05.2016 10:48 22,3 C 13,1 C 12,5 C 75 % 79 % 1019 hPa 0,0 l/m 8,9 km/h (2 Bft) 3 min
03.05.2016 10:51 22,2 C 12,8 C 12,5 C 76 % 79 % 1019 hPa 0,0 l/m 5,4 km/h (1 Bft) 3 min
03.05.2016 10:54 22,3 C 12,8 C 12,8 C 76 % 77 % 1019 hPa 0,0 l/m 1,6 km/h (1 Bft) 3 min
03.05.2016 10:57 22,3 C 13,4 C 13,0 C 74 % 80 % 1019 hPa 0,0 l/m 8,0 km/h (2 Bft) 3 min
03.05.2016 11:00 22,3 C 13,4 C 13,0 C 73 % 80 % 1019 hPa 0,0 l/m 7,9 km/h (2 Bft) 3 min
03.05.2016 11:03 22,3 C 13,7 C 12,9 C 72 % 39 % 1019 hPa 0,0 l/m 8,3 km/h (2 Bft) 0 min
03.05.2016 11:06 22,3 C 13,3 C 12,8 C 74 % 41 % 1019 hPa 0,0 l/m 8,3 km/h (2 Bft) 0 min
03.05.2016 11:09 22,3 C 13,2 C 13,1 C 72 % 41 % 1019 hPa 0,0 l/m 2,8 km/h (1 Bft) 0 min
03.05.2016 11:12 22,3 C 13,8 C 13,0 C 70 % 78 % 1019 hPa 0,0 l/m 6,9 km/h (2 Bft) 3 min
03.05.2016 11:15 22,3 C 14,2 C 13,1 C 65 % 78 % 1019 hPa 0,0 l/m 1,1 km/h (1 Bft) 3 min
03.05.2016 11:18 22,2 C 14,2 C 13,2 C 65 % 78 % 1019 hPa 0,0 l/m 5,4 km/h (1 Bft) 3 min
03.05.2016 11:21 22,3 C 15,0 C 13,6 C 67 % 78 % 1019 hPa 0,0 l/m 7,3 km/h (2 Bft) 3 min
03.05.2016 11:24 22,3 C 15,0 C 13,6 C 66 % 78 % 1019 hPa 0,0 l/m 2,9 km/h (1 Bft) 3 min
03.05.2016 11:27 22,3 C 15,0 C 13,4 C 66 % 79 % 1019 hPa 0,0 l/m 3,6 km/h (1 Bft) 3 min
03.05.2016 11:30 22,3 C 15,4 C 13,4 C 68 % 79 % 1019 hPa 0,0 l/m 0,3 km/h (0 Bft) 3 min
03.05.2016 11:33 22,3 C 15,7 C 13,6 C 66 % 79 % 1019 hPa 0,0 l/m 2,0 km/h (1 Bft) 3 min
03.05.2016 11:36 22,4 C 15,9 C 14,2 C 64 % 79 % 1019 hPa 0,0 l/m 2,0 km/h (1 Bft) 3 min
03.05.2016 11:39 22,4 C 15,9 C 13,9 C 61 % 79 % 1019 hPa 0,0 l/m 5,9 km/h (2 Bft) 3 min
03.05.2016 11:42 22,4 C 15,9 C 13,7 C 61 % 79 % 1019 hPa 0,0 l/m 9,0 km/h (2 Bft) 3 min
03.05.2016 11:45 22,4 C 15,7 C 14,0 C 61 % 79 % 1019 hPa 0,0 l/m 7,3 km/h (2 Bft) 3 min
03.05.2016 11:48 22,4 C 16,0 C 14,3 C 62 % 80 % 1019 hPa 0,0 l/m 7,3 km/h (2 Bft) 3 min
03.05.2016 11:51 22,4 C 16,0 C 14,3 C 62 % 80 % 1019 hPa 0,0 l/m 11,1 km/h (2 Bft) 3 min
03.05.2016 11:54 22,4 C 16,0 C 14,4 C 63 % 80 % 1018 hPa 0,0 l/m 7,2 km/h (2 Bft) 3 min
03.05.2016 11:57 22,4 C 15,9 C 14,6 C 62 % 80 % 1018 hPa 0,0 l/m 9,6 km/h (2 Bft) 3 min
03.05.2016 12:00 22,4 C 16,0 C 14,4 C 61 % 80 % 1018 hPa 0,0 l/m 9,2 km/h (2 Bft) 3 min
03.05.2016 12:03 22,4 C 15,9 C 14,4 C 59 % 80 % 1018 hPa 0,0 l/m 6,0 km/h (2 Bft) 3 min
03.05.2016 12:06 22,4 C 15,8 C 14,8 C 64 % 80 % 1018 hPa 0,0 l/m 3,4 km/h (1 Bft) 3 min
03.05.2016 12:09 22,4 C 16,1 C 14,7 C 60 % 80 % 1018 hPa 0,0 l/m 7,4 km/h (2 Bft) 3 min
03.05.2016 12:12 22,4 C 16,1 C 14,5 C 60 % 75 % 1018 hPa 0,0 l/m 7,5 km/h (2 Bft) 3 min
03.05.2016 12:15 22,4 C 16,1 C 14,8 C 63 % 81 % 1018 hPa 0,0 l/m 13,7 km/h (3 Bft) 3 min
03.05.2016 12:18 22,4 C 16,0 C 14,8 C 61 % 81 % 1018 hPa 0,0 l/m 6,4 km/h (2 Bft) 3 min
03.05.2016 12:21 22,4 C 16,0 C 14,8 C 63 % 80 % 1018 hPa 0,0 l/m 9,2 km/h (2 Bft) 3 min
03.05.2016 12:24 22,4 C 16,3 C 15,3 C 60 % 80 % 1018 hPa 0,0 l/m 9,2 km/h (2 Bft) 3 min
03.05.2016 12:27 22,4 C 16,1 C 15,5 C 59 % 81 % 1018 hPa 0,0 l/m 10,1 km/h (2 Bft) 3 min
03.05.2016 12:30 22,4 C 16,6 C 15,5 C 60 % 81 % 1018 hPa 0,0 l/m 7,5 km/h (2 Bft) 3 min
03.05.2016 12:33 22,4 C 16,2 C 15,5 C 60 % 81 % 1018 hPa 0,0 l/m 9,6 km/h (2 Bft) 3 min
03.05.2016 12:36 22,4 C 16,4 C 15,1 C 58 % 81 % 1018 hPa 0,0 l/m 6,7 km/h (2 Bft) 3 min
03.05.2016 12:39 22,4 C 16,3 C 15,3 C 58 % 80 % 1018 hPa 0,0 l/m 9,1 km/h (2 Bft) 3 min
03.05.2016 12:42 22,4 C 16,8 C 15,5 C 57 % 81 % 1018 hPa 0,0 l/m 5,5 km/h (1 Bft) 3 min
03.05.2016 12:45 22,4 C 16,8 C 15,7 C 57 % 81 % 1018 hPa 0,0 l/m 2,7 km/h (1 Bft) 3 min
03.05.2016 12:48 22,4 C 17,4 C 15,5 C 60 % 80 % 1018 hPa 0,0 l/m 1,2 km/h (1 Bft) 3 min
03.05.2016 12:51 22,4 C 17,5 C 15,5 C 55 % 81 % 1018 hPa 0,0 l/m 5,9 km/h (2 Bft) 3 min
03.05.2016 12:54 22,4 C 18,0 C 15,5 C 55 % 81 % 1018 hPa 0,0 l/m 6,5 km/h (2 Bft) 3 min
03.05.2016 12:57 22,4 C 17,3 C 15,7 C 56 % 81 % 1018 hPa 0,0 l/m 7,7 km/h (2 Bft) 3 min
03.05.2016 13:00 22,4 C 17,4 C 15,8 C 51 % 81 % 1017 hPa 0,0 l/m 11,3 km/h (2 Bft) 3 min
03.05.2016 13:03 22,4 C 18,2 C 16,2 C 50 % 81 % 1017 hPa 0,0 l/m 19,1 km/h (3 Bft) 3 min
03.05.2016 13:06 22,4 C 18,0 C 16,4 C 49 % 81 % 1017 hPa 0,0 l/m 17,6 km/h (3 Bft) 3 min
03.05.2016 13:09 22,4 C 17,9 C 16,3 C 49 % 81 % 1017 hPa 0,0 l/m 11,8 km/h (2 Bft) 3 min
03.05.2016 13:12 22,4 C 18,2 C 16,9 C 46 % 81 % 1017 hPa 0,0 l/m 19,0 km/h (3 Bft) 3 min
03.05.2016 13:15 22,4 C 18,3 C 16,3 C 49 % 80 % 1017 hPa 0,0 l/m 15,0 km/h (3 Bft) 3 min
03.05.2016 13:18 22,4 C 17,8 C 16,1 C 45 % 76 % 1017 hPa 0,0 l/m 14,8 km/h (3 Bft) 3 min
03.05.2016 13:21 22,4 C 17,6 C 16,3 C 48 % 81 % 1017 hPa 0,0 l/m 16,3 km/h (3 Bft) 3 min
03.05.2016 13:24 22,4 C 17,8 C 16,7 C 48 % 81 % 1017 hPa 0,0 l/m 14,4 km/h (3 Bft) 3 min
03.05.2016 13:27 22,4 C 18,3 C 16,7 C 50 % 81 % 1017 hPa 0,0 l/m 12,0 km/h (2 Bft) 3 min
03.05.2016 13:30 22,4 C 18,4 C 16,8 C 45 % 79 % 1017 hPa 0,0 l/m 15,6 km/h (3 Bft) 3 min
03.05.2016 13:33 22,4 C 18,1 C 17,0 C 46 % 81 % 1017 hPa 0,0 l/m 19,8 km/h (3 Bft) 3 min
03.05.2016 13:36 22,4 C 17,9 C 16,7 C 46 % 80 % 1017 hPa 0,0 l/m 12,5 km/h (3 Bft) 3 min
03.05.2016 13:39 22,5 C 18,0 C 16,8 C 45 % 80 % 1017 hPa 0,0 l/m 20,0 km/h (4 Bft) 3 min
03.05.2016 13:42 22,4 C 17,9 C 17,1 C 48 % 80 % 1017 hPa 0,0 l/m 20,0 km/h (4 Bft) 3 min
03.05.2016 13:45 22,5 C 17,8 C 16,9 C 45 % 81 % 1017 hPa 0,0 l/m 15,6 km/h (3 Bft) 3 min
03.05.2016 13:48 22,5 C 18,0 C 17,3 C 45 % 81 % 1017 hPa 0,0 l/m 16,1 km/h (3 Bft) 3 min
03.05.2016 13:51 22,5 C 18,0 C 17,5 C 45 % 81 % 1017 hPa 0,0 l/m 19,5 km/h (3 Bft) 3 min
03.05.2016 13:54 22,5 C 18,3 C 17,1 C 46 % 81 % 1017 hPa 0,0 l/m 16,6 km/h (3 Bft) 3 min
03.05.2016 13:57 22,5 C 18,2 C 17,1 C 44 % 81 % 1017 hPa 0,0 l/m 16,6 km/h (3 Bft) 3 min
03.05.2016 14:00 22,6 C 18,2 C 17,6 C 45 % 81 % 1017 hPa 0,0 l/m 11,5 km/h (2 Bft) 3 min
03.05.2016 14:03 22,5 C 18,3 C 17,4 C 44 % 81 % 1017 hPa 0,0 l/m 18,3 km/h (3 Bft) 3 min
03.05.2016 14:06 22,6 C 18,6 C 17,7 C 42 % 81 % 1017 hPa 0,0 l/m 19,1 km/h (3 Bft) 3 min
03.05.2016 14:09 22,5 C 18,4 C 17,5 C 38 % 81 % 1017 hPa 0,0 l/m 29,8 km/h (5 Bft) 3 min
03.05.2016 14:12 22,5 C 18,1 C 17,6 C 38 % 81 % 1016 hPa 0,0 l/m 21,6 km/h (4 Bft) 3 min
03.05.2016 14:15 22,5 C 18,1 C 17,7 C 39 % 81 % 1016 hPa 0,0 l/m 23,3 km/h (4 Bft) 3 min
03.05.2016 14:18 22,5 C 18,1 C 17,9 C 39 % 81 % 1016 hPa 0,0 l/m 22,7 km/h (4 Bft) 3 min
03.05.2016 14:21 22,5 C 18,8 C 17,9 C 40 % 81 % 1016 hPa 0,0 l/m 26,5 km/h (4 Bft) 3 min
03.05.2016 14:24 22,5 C 19,1 C 18,1 C 39 % 81 % 1016 hPa 0,0 l/m 19,6 km/h (3 Bft) 3 min
03.05.2016 14:27 22,5 C 18,8 C 18,2 C 37 % 81 % 1016 hPa 0,0 l/m 19,9 km/h (4 Bft) 3 min
03.05.2016 14:30 22,5 C 18,6 C 18,1 C 37 % 80 % 1016 hPa 0,0 l/m 22,3 km/h (4 Bft) 3 min
03.05.2016 14:33 22,5 C 18,4 C 18,1 C 37 % 81 % 1016 hPa 0,0 l/m 19,2 km/h (3 Bft) 3 min
03.05.2016 14:36 22,5 C 18,4 C 18,0 C 37 % 81 % 1016 hPa 0,0 l/m 16,1 km/h (3 Bft) 3 min
03.05.2016 14:39 22,5 C 18,5 C 18,0 C 37 % 81 % 1016 hPa 0,0 l/m 20,6 km/h (4 Bft) 3 min
03.05.2016 14:42 22,5 C 18,6 C 18,4 C 35 % 82 % 1016 hPa 0,0 l/m 23,7 km/h (4 Bft) 3 min
03.05.2016 14:45 22,6 C 19,0 C 18,7 C 34 % 81 % 1016 hPa 0,0 l/m 17,6 km/h (3 Bft) 3 min
03.05.2016 14:48 22,5 C 19,1 C 18,7 C 35 % 81 % 1016 hPa 0,0 l/m 18,5 km/h (3 Bft) 3 min
03.05.2016 14:51 22,5 C 18,9 C 18,6 C 35 % 81 % 1016 hPa 0,0 l/m 21,1 km/h (4 Bft) 3 min
03.05.2016 14:54 22,5 C 19,3 C 18,6 C 36 % 81 % 1016 hPa 0,0 l/m 17,0 km/h (3 Bft) 3 min
03.05.2016 14:57 22,5 C 18,9 C 18,5 C 37 % 80 % 1016 hPa 0,0 l/m 11,5 km/h (2 Bft) 3 min
03.05.2016 15:00 22,6 C 18,8 C 18,5 C 35 % 74 % 1016 hPa 0,0 l/m 17,9 km/h (3 Bft) 3 min
03.05.2016 15:03 22,6 C 18,8 C 18,6 C 36 % 81 % 1016 hPa 0,0 l/m 15,3 km/h (3 Bft) 3 min
03.05.2016 15:06 22,6 C 18,6 C 18,5 C 37 % 78 % 1016 hPa 0,0 l/m 15,4 km/h (3 Bft) 3 min
03.05.2016 15:09 22,6 C 18,5 C 18,4 C 37 % 78 % 1016 hPa 0,0 l/m 14,1 km/h (3 Bft) 3 min
03.05.2016 15:12 22,6 C 18,6 C 18,5 C 37 % 79 % 1016 hPa 0,0 l/m 13,1 km/h (3 Bft) 3 min
03.05.2016 15:15 22,6 C 18,8 C 18,8 C 37 % 79 % 1016 hPa 0,0 l/m 19,5 km/h (3 Bft) 3 min
03.05.2016 15:18 22,6 C 18,7 C 18,6 C 38 % 78 % 1016 hPa 0,0 l/m 14,5 km/h (3 Bft) 3 min
03.05.2016 15:21 22,6 C 18,7 C 18,5 C 39 % 78 % 1016 hPa 0,0 l/m 13,7 km/h (3 Bft) 3 min
03.05.2016 15:24 22,6 C 18,6 C 18,5 C 38 % 79 % 1016 hPa 0,0 l/m 14,2 km/h (3 Bft) 3 min
03.05.2016 15:27 22,6 C 18,7 C 18,5 C 38 % 80 % 1016 hPa 0,0 l/m 15,8 km/h (3 Bft) 3 min
03.05.2016 15:30 22,6 C 18,7 C 18,5 C 37 % 80 % 1016 hPa 0,0 l/m 16,8 km/h (3 Bft) 3 min
03.05.2016 15:33 22,6 C 18,8 C 18,6 C 38 % 80 % 1016 hPa 0,0 l/m 17,8 km/h (3 Bft) 3 min
03.05.2016 15:36 22,6 C 18,9 C 18,9 C 38 % 80 % 1016 hPa 0,0 l/m 17,3 km/h (3 Bft) 3 min
03.05.2016 15:39 22,6 C 18,8 C 18,6 C 40 % 77 % 1016 hPa 0,0 l/m 10,6 km/h (2 Bft) 3 min
03.05.2016 15:42 22,6 C 18,8 C 18,6 C 42 % 77 % 1016 hPa 0,0 l/m 16,3 km/h (3 Bft) 3 min
03.05.2016 15:45 22,6 C 18,8 C 18,7 C 43 % 80 % 1016 hPa 0,0 l/m 17,5 km/h (3 Bft) 3 min
03.05.2016 15:48 22,6 C 18,7 C 19,0 C 44 % 80 % 1016 hPa 0,0 l/m 22,5 km/h (4 Bft) 3 min
03.05.2016 15:51 22,6 C 18,7 C 18,8 C 43 % 80 % 1016 hPa 0,0 l/m 14,9 km/h (3 Bft) 3 min
03.05.2016 15:54 22,6 C 18,9 C 19,1 C 43 % 80 % 1016 hPa 0,0 l/m 23,6 km/h (4 Bft) 3 min
03.05.2016 15:57 22,6 C 18,8 C 19,1 C 44 % 81 % 1016 hPa 0,0 l/m 23,6 km/h (4 Bft) 3 min
03.05.2016 16:00 22,5 C 18,8 C 18,6 C 43 % 81 % 1016 hPa 0,0 l/m 24,8 km/h (4 Bft) 3 min
03.05.2016 16:03 22,5 C 18,8 C 19,0 C 44 % 81 % 1016 hPa 0,0 l/m 25,6 km/h (4 Bft) 3 min
03.05.2016 16:06 22,6 C 19,1 C 18,9 C 45 % 81 % 1016 hPa 0,0 l/m 19,5 km/h (3 Bft) 3 min
03.05.2016 16:09 22,6 C 19,2 C 18,9 C 41 % 81 % 1016 hPa 0,0 l/m 18,3 km/h (3 Bft) 3 min
03.05.2016 16:12 22,6 C 19,2 C 18,8 C 42 % 81 % 1016 hPa 0,0 l/m 13,8 km/h (3 Bft) 3 min
03.05.2016 16:15 22,6 C 19,2 C 18,9 C 42 % 81 % 1016 hPa 0,0 l/m 19,1 km/h (3 Bft) 3 min
03.05.2016 16:18 22,6 C 18,8 C 18,9 C 42 % 81 % 1016 hPa 0,0 l/m 21,3 km/h (4 Bft) 3 min
03.05.2016 16:21 22,6 C 18,9 C 18,8 C 42 % 81 % 1016 hPa 0,0 l/m 16,9 km/h (3 Bft) 3 min
03.05.2016 16:24 22,6 C 18,8 C 18,9 C 40 % 80 % 1016 hPa 0,0 l/m 20,8 km/h (4 Bft) 3 min
03.05.2016 16:27 22,6 C 19,1 C 18,9 C 39 % 81 % 1016 hPa 0,0 l/m 17,0 km/h (3 Bft) 3 min
03.05.2016 16:30 22,6 C 19,1 C 18,8 C 42 % 81 % 1016 hPa 0,0 l/m 14,1 km/h (3 Bft) 3 min
03.05.2016 16:33 22,6 C 18,8 C 18,6 C 40 % 80 % 1016 hPa 0,0 l/m 17,5 km/h (3 Bft) 3 min
03.05.2016 16:36 22,5 C 18,9 C 19,0 C 43 % 80 % 1016 hPa 0,0 l/m 14,0 km/h (3 Bft) 3 min
03.05.2016 16:39 22,6 C 19,1 C 18,8 C 42 % 80 % 1016 hPa 0,0 l/m 14,5 km/h (3 Bft) 3 min
03.05.2016 16:42 22,6 C 18,8 C 18,7 C 42 % 80 % 1016 hPa 0,0 l/m 14,8 km/h (3 Bft) 3 min
03.05.2016 16:45 22,6 C 19,0 C 19,1 C 43 % 78 % 1016 hPa 0,0 l/m 13,3 km/h (3 Bft) 3 min
03.05.2016 16:48 22,6 C 18,4 C 18,9 C 43 % 78 % 1016 hPa 0,0 l/m 24,0 km/h (4 Bft) 3 min
03.05.2016 16:51 22,6 C 17,8 C 18,8 C 46 % 55 % 1016 hPa 0,0 l/m 17,8 km/h (3 Bft) 3 min
03.05.2016 16:54 22,6 C 18,0 C 18,9 C 43 % 55 % 1016 hPa 0,0 l/m 35,0 km/h (5 Bft) 3 min
03.05.2016 16:57 22,6 C 17,3 C 18,3 C 44 % 79 % 1016 hPa 0,0 l/m 39,1 km/h (6 Bft) 3 min
03.05.2016 17:00 22,6 C 17,2 C 18,4 C 47 % 80 % 1016 hPa 0,0 l/m 29,5 km/h (5 Bft) 3 min
03.05.2016 17:03 22,6 C 17,2 C 18,4 C 46 % 79 % 1016 hPa 0,0 l/m 27,0 km/h (4 Bft) 3 min
03.05.2016 17:06 22,6 C 17,4 C 18,5 C 47 % 78 % 1016 hPa 0,0 l/m 19,8 km/h (3 Bft) 3 min
03.05.2016 17:09 22,6 C 17,7 C 18,5 C 49 % 78 % 1016 hPa 0,0 l/m 19,8 km/h (3 Bft) 3 min
03.05.2016 17:12 22,6 C 17,6 C 18,5 C 46 % 78 % 1016 hPa 0,0 l/m 31,1 km/h (5 Bft) 3 min
03.05.2016 17:15 22,6 C 17,6 C 18,4 C 47 % 77 % 1016 hPa 0,0 l/m 23,3 km/h (4 Bft) 3 min
03.05.2016 17:18 22,6 C 17,5 C 18,3 C 46 % 77 % 1016 hPa 0,0 l/m 31,6 km/h (5 Bft) 3 min
03.05.2016 17:21 22,6 C 17,5 C 18,4 C 46 % 77 % 1016 hPa 0,0 l/m 30,3 km/h (5 Bft) 3 min
03.05.2016 17:24 22,7 C 17,5 C 18,5 C 46 % 79 % 1016 hPa 0,0 l/m 27,0 km/h (4 Bft) 3 min
03.05.2016 17:27 22,6 C 17,8 C 18,4 C 49 % 79 % 1016 hPa 0,0 l/m 16,7 km/h (3 Bft) 3 min
03.05.2016 17:30 22,7 C 18,0 C 18,5 C 47 % 79 % 1016 hPa 0,0 l/m 25,0 km/h (4 Bft) 3 min
03.05.2016 17:33 22,7 C 17,8 C 18,3 C 47 % 79 % 1016 hPa 0,0 l/m 25,8 km/h (4 Bft) 3 min
03.05.2016 17:36 22,7 C 17,4 C 18,2 C 47 % 37 % 1016 hPa 0,0 l/m 23,0 km/h (4 Bft) 0 min
03.05.2016 17:39 22,7 C 17,1 C 18,0 C 46 % 33 % 1016 hPa 0,0 l/m 24,6 km/h (4 Bft) 0 min
03.05.2016 17:42 22,7 C 16,9 C 18,0 C 48 % 31 % 1016 hPa 0,0 l/m 18,2 km/h (3 Bft) 0 min
03.05.2016 17:45 22,7 C 16,7 C 17,9 C 49 % 28 % 1017 hPa 0,0 l/m 10,9 km/h (2 Bft) 0 min
03.05.2016 17:48 22,6 C 16,6 C 17,9 C 49 % 28 % 1017 hPa 0,0 l/m 11,1 km/h (2 Bft) 0 min
03.05.2016 17:51 22,6 C 16,6 C 17,8 C 49 % 31 % 1017 hPa 0,0 l/m 6,7 km/h (2 Bft) 0 min
03.05.2016 17:54 22,6 C 16,1 C 17,7 C 47 % 34 % 1017 hPa 0,0 l/m 9,7 km/h (2 Bft) 0 min
03.05.2016 17:57 22,6 C 16,2 C 17,6 C 51 % 32 % 1017 hPa 0,0 l/m 10,0 km/h (2 Bft) 0 min
03.05.2016 18:00 22,6 C 16,1 C 17,6 C 45 % 32 % 1017 hPa 0,0 l/m 18,6 km/h (3 Bft) 0 min
03.05.2016 18:03 22,6 C 16,1 C 17,5 C 46 % 32 % 1016 hPa 0,0 l/m 9,5 km/h (2 Bft) 0 min
03.05.2016 18:06 22,6 C 16,2 C 17,5 C 48 % 27 % 1017 hPa 0,0 l/m 11,1 km/h (2 Bft) 0 min
03.05.2016 18:09 22,6 C 16,2 C 17,5 C 52 % 24 % 1017 hPa 0,0 l/m 11,8 km/h (2 Bft) 0 min
03.05.2016 18:12 22,6 C 16,1 C 17,5 C 51 % 22 % 1017 hPa 0,0 l/m 11,4 km/h (2 Bft) 0 min
03.05.2016 18:15 22,6 C 16,0 C 17,3 C 52 % 19 % 1017 hPa 0,0 l/m 11,4 km/h (2 Bft) 0 min
03.05.2016 18:18 22,6 C 16,0 C 17,2 C 52 % 17 % 1017 hPa 0,0 l/m 8,7 km/h (2 Bft) 0 min
03.05.2016 18:21 22,6 C 16,0 C 17,7 C 57 % 17 % 1017 hPa 0,0 l/m 11,6 km/h (2 Bft) 0 min
03.05.2016 18:24 22,6 C 15,8 C 17,3 C 53 % 13 % 1017 hPa 0,0 l/m 11,6 km/h (2 Bft) 0 min
03.05.2016 18:27 22,6 C 15,8 C 17,2 C 53 % 9 % 1017 hPa 0,0 l/m 13,2 km/h (3 Bft) 0 min
03.05.2016 18:30 22,6 C 15,7 C 17,2 C 56 % 8 % 1017 hPa 0,0 l/m 17,0 km/h (3 Bft) 0 min
03.05.2016 18:33 22,6 C 15,4 C 17,1 C 58 % 7 % 1017 hPa 0,0 l/m 16,3 km/h (3 Bft) 0 min
03.05.2016 18:36 22,6 C 15,0 C 16,6 C 62 % 6 % 1017 hPa 0,0 l/m 8,6 km/h (2 Bft) 0 min
03.05.2016 18:39 22,7 C 15,0 C 16,6 C 61 % 6 % 1017 hPa 0,0 l/m 16,4 km/h (3 Bft) 0 min
03.05.2016 18:42 22,8 C 14,9 C 16,7 C 63 % 6 % 1017 hPa 0,0 l/m 16,4 km/h (3 Bft) 0 min
03.05.2016 18:45 22,8 C 14,8 C 16,4 C 60 % 5 % 1017 hPa 0,0 l/m 22,6 km/h (4 Bft) 0 min
03.05.2016 18:48 22,8 C 14,6 C 16,4 C 59 % 5 % 1017 hPa 0,0 l/m 15,9 km/h (3 Bft) 0 min
03.05.2016 18:51 22,8 C 14,4 C 16,1 C 59 % 5 % 1017 hPa 0,0 l/m 14,5 km/h (3 Bft) 0 min
03.05.2016 18:54 22,7 C 14,2 C 16,2 C 55 % 6 % 1017 hPa 0,0 l/m 14,5 km/h (3 Bft) 0 min
03.05.2016 18:57 22,7 C 14,2 C 16,2 C 54 % 6 % 1017 hPa 0,0 l/m 15,1 km/h (3 Bft) 0 min
03.05.2016 19:00 22,7 C 14,2 C 16,1 C 57 % 6 % 1017 hPa 0,0 l/m 12,6 km/h (3 Bft) 0 min
03.05.2016 19:03 22,7 C 14,0 C 15,9 C 59 % 6 % 1017 hPa 0,0 l/m 13,2 km/h (3 Bft) 0 min
03.05.2016 19:06 22,7 C 13,9 C 15,6 C 59 % 6 % 1017 hPa 0,0 l/m 20,6 km/h (4 Bft) 0 min
03.05.2016 19:09 22,7 C 13,8 C 15,6 C 57 % 6 % 1017 hPa 0,0 l/m 15,7 km/h (3 Bft) 0 min
03.05.2016 19:12 22,7 C 13,6 C 15,5 C 59 % 6 % 1017 hPa 0,0 l/m 17,5 km/h (3 Bft) 0 min
03.05.2016 19:15 22,7 C 13,5 C 15,5 C 59 % 6 % 1017 hPa 0,0 l/m 25,8 km/h (4 Bft) 0 min
03.05.2016 19:18 22,7 C 13,4 C 15,3 C 60 % 6 % 1017 hPa 0,0 l/m 24,3 km/h (4 Bft) 0 min
03.05.2016 19:21 22,7 C 13,4 C 15,5 C 61 % 5 % 1017 hPa 0,0 l/m 21,3 km/h (4 Bft) 0 min
03.05.2016 19:24 22,7 C 13,4 C 15,5 C 60 % 5 % 1017 hPa 0,0 l/m 26,7 km/h (4 Bft) 0 min
03.05.2016 19:27 22,7 C 13,6 C 15,3 C 59 % 5 % 1017 hPa 0,0 l/m 26,6 km/h (4 Bft) 0 min
03.05.2016 19:30 22,7 C 13,6 C 15,2 C 59 % 5 % 1017 hPa 0,0 l/m 26,6 km/h (4 Bft) 0 min
03.05.2016 19:33 22,7 C 13,5 C 15,2 C 60 % 4 % 1017 hPa 0,0 l/m 31,0 km/h (5 Bft) 0 min
03.05.2016 19:36 22,8 C 13,6 C 15,2 C 59 % 4 % 1017 hPa 0,0 l/m 34,5 km/h (5 Bft) 0 min
03.05.2016 19:39 22,7 C 13,4 C 15,0 C 59 % 4 % 1017 hPa 0,0 l/m 29,1 km/h (5 Bft) 0 min
03.05.2016 19:42 22,7 C 13,2 C 15,0 C 61 % 5 % 1018 hPa 0,0 l/m 40,4 km/h (6 Bft) 0 min
03.05.2016 19:45 22,7 C 13,0 C 14,8 C 63 % 5 % 1018 hPa 0,0 l/m 31,2 km/h (5 Bft) 0 min
03.05.2016 19:48 22,7 C 12,8 C 14,5 C 64 % 5 % 1018 hPa 0,0 l/m 29,1 km/h (5 Bft) 0 min
03.05.2016 19:51 22,7 C 12,8 C 14,5 C 64 % 4 % 1018 hPa 0,0 l/m 32,5 km/h (5 Bft) 0 min
03.05.2016 19:54 22,7 C 12,4 C 14,3 C 69 % 4 % 1018 hPa 0,0 l/m 19,4 km/h (3 Bft) 0 min
03.05.2016 19:57 22,7 C 12,4 C 14,5 C 69 % 4 % 1018 hPa 0,0 l/m 27,0 km/h (4 Bft) 0 min
03.05.2016 20:00 22,7 C 12,4 C 14,6 C 69 % 4 % 1018 hPa 0,0 l/m 27,0 km/h (4 Bft) 0 min
03.05.2016 20:03 22,6 C 12,4 C 14,3 C 68 % 4 % 1018 hPa 0,0 l/m 32,1 km/h (5 Bft) 0 min
03.05.2016 20:06 22,6 C 12,4 C 14,3 C 67 % 3 % 1018 hPa 0,0 l/m 31,0 km/h (5 Bft) 3 min
03.05.2016 20:09 22,6 C 12,4 C 14,3 C 67 % 3 % 1018 hPa 0,0 l/m 20,5 km/h (4 Bft) 3 min
03.05.2016 20:12 22,7 C 12,4 C 14,1 C 68 % 2 % 1018 hPa 0,0 l/m 28,1 km/h (4 Bft) 3 min
03.05.2016 20:15 22,6 C 12,3 C 14,5 C 69 % 1 % 1018 hPa 0,0 l/m 26,2 km/h (4 Bft) 0 min
03.05.2016 20:18 22,6 C 12,3 C 14,2 C 69 % 1 % 1018 hPa 0,0 l/m 28,0 km/h (4 Bft) 0 min
03.05.2016 20:21 22,6 C 12,2 C 14,1 C 68 % 1 % 1018 hPa 0,0 l/m 17,7 km/h (3 Bft) 0 min
03.05.2016 20:24 22,6 C 12,1 C 14,0 C 68 % 1 % 1018 hPa 0,0 l/m 27,0 km/h (4 Bft) 0 min
03.05.2016 20:27 22,6 C 12,0 C 14,0 C 70 % 0 % 1019 hPa 0,0 l/m 21,6 km/h (4 Bft) 0 min
03.05.2016 20:30 22,6 C 11,9 C 13,8 C 70 % 0 % 1019 hPa 0,0 l/m 21,7 km/h (4 Bft) 0 min
03.05.2016 20:33 22,6 C 11,8 C 14,0 C 70 % 0 % 1019 hPa 0,0 l/m 25,3 km/h (4 Bft) 0 min
03.05.2016 20:36 22,6 C 11,8 C 14,0 C 70 % 0 % 1019 hPa 0,0 l/m 25,3 km/h (4 Bft) 0 min
03.05.2016 20:39 22,6 C 11,8 C 13,9 C 70 % 0 % 1019 hPa 0,0 l/m 22,3 km/h (4 Bft) 0 min
03.05.2016 20:42 22,5 C 11,8 C 13,6 C 70 % 0 % 1019 hPa 0,0 l/m 21,3 km/h (4 Bft) 0 min
03.05.2016 20:45 22,6 C 11,7 C 13,6 C 71 % 0 % 1019 hPa 0,0 l/m 22,3 km/h (4 Bft) 0 min
03.05.2016 20:48 22,5 C 11,5 C 13,5 C 72 % 0 % 1019 hPa 0,0 l/m 23,0 km/h (4 Bft) 0 min
03.05.2016 20:51 22,5 C 11,4 C 13,5 C 72 % 0 % 1019 hPa 0,0 l/m 18,6 km/h (3 Bft) 0 min
03.05.2016 20:54 22,5 C 11,3 C 13,4 C 72 % 0 % 1019 hPa 0,0 l/m 24,1 km/h (4 Bft) 0 min
03.05.2016 20:57 22,5 C 11,3 C 13,5 C 73 % 0 % 1019 hPa 0,0 l/m 16,6 km/h (3 Bft) 0 min
03.05.2016 21:00 22,5 C 11,3 C 13,5 C 73 % 0 % 1019 hPa 0,0 l/m 16,8 km/h (3 Bft) 0 min
03.05.2016 21:03 22,5 C 11,2 C 13,5 C 73 % 0 % 1019 hPa 0,0 l/m 21,1 km/h (4 Bft) 0 min
03.05.2016 21:06 22,5 C 11,1 C 13,1 C 74 % 0 % 1019 hPa 0,0 l/m 15,6 km/h (3 Bft) 0 min
03.05.2016 21:09 22,5 C 11,0 C 13,2 C 76 % 0 % 1019 hPa 0,0 l/m 22,6 km/h (4 Bft) 0 min
03.05.2016 21:12 22,5 C 11,0 C 13,1 C 76 % 0 % 1019 hPa 0,0 l/m 13,1 km/h (3 Bft) 0 min
03.05.2016 21:15 22,5 C 10,8 C 13,1 C 77 % 0 % 1019 hPa 0,0 l/m 17,1 km/h (3 Bft) 0 min
03.05.2016 21:18 22,5 C 10,8 C 13,3 C 77 % 0 % 1019 hPa 0,0 l/m 17,1 km/h (3 Bft) 0 min
03.05.2016 21:21 22,5 C 10,9 C 13,1 C 76 % 0 % 1019 hPa 0,0 l/m 17,1 km/h (3 Bft) 0 min
03.05.2016 21:24 22,5 C 11,0 C 13,0 C 76 % 0 % 1020 hPa 0,0 l/m 13,8 km/h (3 Bft) 0 min
03.05.2016 21:27 22,5 C 11,0 C 13,0 C 76 % 0 % 1020 hPa 0,0 l/m 21,3 km/h (4 Bft) 0 min
03.05.2016 21:30 22,5 C 11,0 C 13,0 C 76 % 0 % 1020 hPa 0,0 l/m 21,6 km/h (4 Bft) 0 min
03.05.2016 21:33 22,5 C 10,9 C 13,0 C 76 % 0 % 1020 hPa 0,0 l/m 15,8 km/h (3 Bft) 0 min
03.05.2016 21:36 22,5 C 10,9 C 13,0 C 76 % 0 % 1020 hPa 0,0 l/m 17,3 km/h (3 Bft) 0 min
03.05.2016 21:39 22,4 C 10,9 C 12,9 C 76 % 0 % 1020 hPa 0,0 l/m 16,0 km/h (3 Bft) 0 min
03.05.2016 21:42 22,5 C 10,8 C 12,9 C 78 % 0 % 1020 hPa 0,0 l/m 11,7 km/h (2 Bft) 0 min
03.05.2016 21:45 22,4 C 10,8 C 12,9 C 78 % 0 % 1020 hPa 0,0 l/m 14,3 km/h (3 Bft) 0 min
03.05.2016 21:48 22,4 C 10,7 C 12,8 C 78 % 0 % 1020 hPa 0,0 l/m 13,8 km/h (3 Bft) 0 min
03.05.2016 21:51 22,4 C 10,6 C 12,9 C 79 % 0 % 1020 hPa 0,0 l/m 13,1 km/h (3 Bft) 0 min
03.05.2016 21:54 22,4 C 10,6 C 12,9 C 80 % 0 % 1020 hPa 0,0 l/m 12,1 km/h (2 Bft) 0 min
03.05.2016 21:57 22,4 C 10,6 C 12,7 C 80 % 0 % 1020 hPa 0,0 l/m 13,6 km/h (3 Bft) 0 min
03.05.2016 22:00 22,4 C 10,5 C 12,7 C 80 % 0 % 1020 hPa 0,0 l/m 18,1 km/h (3 Bft) 0 min
03.05.2016 22:03 22,5 C 10,5 C 12,7 C 81 % 0 % 1020 hPa 0,0 l/m 13,4 km/h (3 Bft) 0 min
03.05.2016 22:06 22,4 C 10,5 C 12,6 C 81 % 0 % 1020 hPa 0,0 l/m 17,2 km/h (3 Bft) 0 min
03.05.2016 22:09 22,5 C 10,5 C 12,5 C 81 % 0 % 1021 hPa 0,0 l/m 15,1 km/h (3 Bft) 0 min
03.05.2016 22:12 22,5 C 10,5 C 12,6 C 81 % 0 % 1020 hPa 0,0 l/m 16,3 km/h (3 Bft) 0 min
03.05.2016 22:15 22,5 C 10,4 C 12,6 C 81 % 0 % 1021 hPa 0,0 l/m 15,3 km/h (3 Bft) 0 min
03.05.2016 22:18 22,5 C 10,4 C 12,4 C 82 % 0 % 1021 hPa 0,0 l/m 17,0 km/h (3 Bft) 0 min
03.05.2016 22:21 22,5 C 10,4 C 12,4 C 82 % 0 % 1021 hPa 0,0 l/m 17,5 km/h (3 Bft) 0 min
03.05.2016 22:24 22,5 C 10,4 C 12,5 C 82 % 0 % 1021 hPa 0,0 l/m 18,2 km/h (3 Bft) 0 min
03.05.2016 22:27 22,5 C 10,4 C 12,5 C 82 % 0 % 1021 hPa 0,0 l/m 25,8 km/h (4 Bft) 0 min
03.05.2016 22:30 22,5 C 10,4 C 12,2 C 82 % 0 % 1021 hPa 0,0 l/m 17,8 km/h (3 Bft) 0 min
03.05.2016 22:33 22,5 C 10,1 C 12,2 C 81 % 0 % 1021 hPa 0,0 l/m 25,3 km/h (4 Bft) 0 min
03.05.2016 22:36 22,5 C 10,1 C 12,2 C 81 % 0 % 1021 hPa 0,0 l/m 15,3 km/h (3 Bft) 0 min
03.05.2016 22:39 22,5 C 10,0 C 12,2 C 81 % 0 % 1021 hPa 0,0 l/m 11,1 km/h (2 Bft) 0 min
03.05.2016 22:42 22,5 C 10,0 C 12,3 C 81 % 0 % 1021 hPa 0,0 l/m 11,1 km/h (2 Bft) 0 min
03.05.2016 22:45 22,4 C 10,0 C 12,1 C 81 % 0 % 1021 hPa 0,0 l/m 12,7 km/h (3 Bft) 0 min
03.05.2016 22:48 22,5 C 9,9 C 12,1 C 82 % 0 % 1021 hPa 0,0 l/m 18,3 km/h (3 Bft) 0 min
03.05.2016 22:51 22,5 C 9,9 C 12,0 C 82 % 0 % 1021 hPa 0,0 l/m 16,0 km/h (3 Bft) 0 min
03.05.2016 22:54 22,5 C 9,8 C 12,0 C 82 % 0 % 1021 hPa 0,0 l/m 21,8 km/h (4 Bft) 0 min
03.05.2016 22:57 22,5 C 9,8 C 12,1 C 82 % 0 % 1021 hPa 0,0 l/m 8,6 km/h (2 Bft) 0 min
03.05.2016 23:00 22,4 C 9,8 C 12,1 C 82 % 0 % 1021 hPa 0,0 l/m 13,7 km/h (3 Bft) 0 min
03.05.2016 23:03 22,4 C 9,8 C 12,0 C 82 % 0 % 1021 hPa 0,0 l/m 10,6 km/h (2 Bft) 0 min
03.05.2016 23:06 22,5 C 9,8 C 11,9 C 82 % 0 % 1021 hPa 0,0 l/m 18,0 km/h (3 Bft) 0 min
03.05.2016 23:09 22,4 C 9,7 C 11,9 C 82 % 0 % 1021 hPa 0,0 l/m 11,1 km/h (2 Bft) 0 min
03.05.2016 23:12 22,4 C 9,7 C 11,9 C 82 % 0 % 1021 hPa 0,0 l/m 12,7 km/h (3 Bft) 0 min
03.05.2016 23:15 22,5 C 9,7 C 11,7 C 82 % 0 % 1021 hPa 0,0 l/m 16,9 km/h (3 Bft) 0 min
03.05.2016 23:18 22,5 C 9,7 C 11,6 C 82 % 0 % 1021 hPa 0,0 l/m 16,0 km/h (3 Bft) 0 min
03.05.2016 23:21 22,4 C 9,6 C 11,7 C 82 % 0 % 1022 hPa 0,0 l/m 14,8 km/h (3 Bft) 0 min
03.05.2016 23:24 22,4 C 9,6 C 11,8 C 83 % 0 % 1022 hPa 0,0 l/m 12,2 km/h (2 Bft) 0 min
03.05.2016 23:27 22,4 C 9,6 C 11,8 C 83 % 0 % 1022 hPa 0,0 l/m 10,5 km/h (2 Bft) 0 min
03.05.2016 23:30 22,4 C 9,6 C 11,7 C 83 % 0 % 1022 hPa 0,0 l/m 13,4 km/h (3 Bft) 0 min
03.05.2016 23:33 22,4 C 9,6 C 11,6 C 83 % 0 % 1022 hPa 0,0 l/m 15,5 km/h (3 Bft) 0 min
03.05.2016 23:36 22,4 C 9,6 C 11,6 C 83 % 0 % 1022 hPa 0,0 l/m 18,5 km/h (3 Bft) 0 min
03.05.2016 23:39 22,4 C 9,6 C 11,7 C 84 % 0 % 1022 hPa 0,0 l/m 16,1 km/h (3 Bft) 0 min
03.05.2016 23:42 22,4 C 9,6 C 11,7 C 84 % 0 % 1022 hPa 0,0 l/m 16,1 km/h (3 Bft) 0 min
03.05.2016 23:45 22,4 C 9,6 C 11,6 C 84 % 0 % 1022 hPa 0,0 l/m 12,6 km/h (3 Bft) 0 min
03.05.2016 23:48 22,4 C 9,6 C 11,6 C 84 % 0 % 1022 hPa 0,0 l/m 15,5 km/h (3 Bft) 0 min
03.05.2016 23:51 22,4 C 9,5 C 11,6 C 84 % 0 % 1022 hPa 0,0 l/m 18,2 km/h (3 Bft) 0 min
03.05.2016 23:54 22,4 C 9,5 C 11,4 C 84 % 0 % 1022 hPa 0,0 l/m 18,2 km/h (3 Bft) 0 min
03.05.2016 23:57 22,4 C 9,5 C 11,6 C 84 % 0 % 1022 hPa 0,0 l/m 16,9 km/h (3 Bft) 0 min
_ Min-Zeit 04:42 05:12 05:42 14:45 - 14:12 - 00:07 -
Minimum _ 22,1 C 4,8 C 8,1 C 34 % - 1016 hPa - 0,0 km/h (0 Bft) -
_ Max-Zeit 18:42 14:54 15:54 07:45 14:42 23:21 00:01 19:42 08:48
Maximum _ 22,8 C 19,3 C 19,1 C 96 % 82 % 1022 hPa 0,0 l/m 40,4 km/h
NW (6 Bft)
3 min
Durchschnitt _ 22,4 C 11,4 C 12,9 C 73 % #8:18 h 1019 hPa #0,0 l/m 9,4 km/h (2 Bft) #8:18 h